Weather History for KFPR - April, 2013

Change the Weather History Date:

Wednesday, April 3, 2013

  Actual Average Record
Temperature  
Mean Temperature 75 °F -  
Max Temperature 84 °F 81 °F 91 °F (1973)
Min Temperature 68 °F 60 °F 45 °F (1993)
Cooling Degree Days 10    
Growing Degree Days 25 (Base 50)    
Moisture  
Dew Point 66 °F    
Average Humidity 77    
Maximum Humidity 84    
Minimum Humidity 60    
Precipitation  
Precipitation 0.00 in - - ()
Sea Level Pressure  
Sea Level Pressure 30.04 in    
Wind  
Wind Speed 10 mph (ESE)    
Max Wind Speed 20 mph    
Max Gust Speed 28 mph    
Visibility 10 miles    
Events Rain    
Averages and records for this station are not official NWS values.
T = Trace of Precipitation, MM = Missing Value Source: NWS Daily Summary

Daily Weather History Graph

Daily Weather History Graph

Search for Another Location

Airport or City:

Trip Planner

Search our weather history database for the weather conditions in past years. The results will help you decide how hot, cold, wet, or windy it might be!

Date:

Astronomy

Apr. 03, 2013 Rise Set
Actual Time 7:09 AM EDT 7:40 PM EDT
Civil Twilight 6:46 AM EDT 8:03 PM EDT
Nautical Twilight 6:18 AM EDT 8:31 PM EDT
Astronomical Twilight 5:50 AM EDT 8:59 PM EDT
Moon 2:15 AM EDT (4/3) 1:22 PM EDT (4/3)
Length of Visible Light 13h 17m
Length of Day
12h 30m
Last Quarter, 45% of the Moon is Illuminated
Apr 3
Last Quarter
Apr 10
New
Apr 18
First Quarter
Apr 25
Full
May 2
Last Quarter

Hourly Weather History & Observations

Time (EDT) Temp. Heat Index Dew Point Humidity Pressure Visibility Wind Dir Wind Speed Gust Speed Precip Events Conditions
12:53 AM 70.0 °F - 64.0 °F 81% 30.08 in 10.0 mi East 6.9 mph - N/A   Clear
1:53 AM 70.0 °F - 64.0 °F 81% 30.08 in 10.0 mi East 5.8 mph - N/A   Clear
2:53 AM 68.0 °F - 63.0 °F 84% 30.07 in 10.0 mi East 3.5 mph - N/A   Clear
3:53 AM 70.0 °F - 64.9 °F 84% 30.04 in 10.0 mi East 8.1 mph - N/A   Clear
4:53 AM 69.1 °F - 64.0 °F 84% 30.04 in 10.0 mi East 5.8 mph - N/A   Clear
5:53 AM 71.1 °F - 66.0 °F 84% 30.03 in 10.0 mi ESE 9.2 mph - N/A   Scattered Clouds
6:53 AM 70.0 °F - 64.9 °F 84% 30.05 in 10.0 mi SE 5.8 mph - N/A   Clear
7:53 AM 73.0 °F - 66.9 °F 81% 30.06 in 9.0 mi SE 8.1 mph - N/A   Partly Cloudy
8:53 AM 75.0 °F - 64.9 °F 71% 30.07 in 10.0 mi SE 10.4 mph - N/A   Partly Cloudy
9:53 AM 78.1 °F - 64.9 °F 64% 30.07 in 10.0 mi SE 16.1 mph - N/A   Partly Cloudy
10:53 AM 80.1 °F 81.9 °F 64.9 °F 60% 30.07 in 10.0 mi SE 13.8 mph - N/A   Clear
11:53 AM 81.0 °F 83.0 °F 66.0 °F 60% 30.07 in - ESE 15.0 mph 21.9 mph N/A   Scattered Clouds
12:53 PM 82.0 °F - - N/A% 30.04 in - ESE 19.6 mph 27.6 mph N/A   Clear
1:53 PM 82.9 °F - - N/A% 30.04 in - ESE 17.3 mph - N/A   Clear
2:53 PM 82.9 °F - - N/A% 30.02 in - ESE 19.6 mph - N/A   Clear
3:53 PM 78.1 °F - - N/A% 30.01 in - ESE 19.6 mph - N/A   Overcast
4:53 PM 77.0 °F - 69.1 °F 76% 30.00 in 10.0 mi ESE 12.7 mph - 0.00 in Rain Light Rain
5:53 PM 75.9 °F - 69.1 °F 79% 30.01 in 10.0 mi SE 15.0 mph - 0.00 in Rain Light Rain
6:53 PM 75.0 °F - 68.0 °F 79% 30.01 in 10.0 mi SE 15.0 mph - 0.00 in   Mostly Cloudy
7:53 PM 75.0 °F - 68.0 °F 79% 29.99 in 10.0 mi SE 15.0 mph - N/A   Scattered Clouds
8:53 PM 75.0 °F - 66.9 °F 76% 30.02 in 10.0 mi SSE 13.8 mph - N/A   Clear
9:53 PM 75.0 °F - 68.0 °F 79% 30.05 in 10.0 mi SE 11.5 mph - N/A   Mostly Cloudy
10:53 PM 75.0 °F - 68.0 °F 79% 30.06 in 10.0 mi SSE 8.1 mph - N/A   Scattered Clouds
11:53 PM 75.0 °F - 69.1 °F 82% 30.06 in 10.0 mi SSE 5.8 mph - N/A   Mostly Cloudy